Time,TemperatureF,DewpointF,PressureIn,WindDirection,WindDirectionDegrees,WindSpeedMPH,WindSpeedGustMPH,Humidity,HourlyPrecipIn,Conditions,Clouds,dailyrainin,SoftwareType,DateUTC
2013-01-20 00:02:00,62.0,-6.0,30.10,North,-999,0.0,0.0,6,0.00,,,-99.99,,2013-01-20 08:02:00,
2013-01-20 00:12:00,61.0,-7.0,30.10,North,0,0.0,3.0,6,0.00,,,-99.99,,2013-01-20 08:12:00,
2013-01-20 00:22:00,61.0,-7.0,30.10,North,0,0.0,3.0,6,0.00,,,-99.99,,2013-01-20 08:22:00,
2013-01-20 00:42:00,61.0,-7.0,30.09,North,0,0.0,3.0,6,0.00,,,-99.99,,2013-01-20 08:42:00,
2013-01-20 00:52:00,61.0,-7.0,30.09,North,0,0.0,3.0,6,0.00,,,-99.99,,2013-01-20 08:52:00,
2013-01-20 01:00:00,61.0,-4.0,30.09,North,0,0.0,1.0,7,0.00,,,-99.99,,2013-01-20 09:00:00,
2013-01-20 01:02:00,61.0,-7.0,30.09,North,-999,0.0,0.0,6,0.00,,,-99.99,,2013-01-20 09:02:00,
2013-01-20 01:12:00,61.0,-4.0,30.09,North,0,0.0,4.0,7,0.00,,,-99.99,,2013-01-20 09:12:00,
2013-01-20 01:22:00,61.0,-4.0,30.09,North,0,0.0,4.0,7,0.00,,,-99.99,,2013-01-20 09:22:00,
2013-01-20 01:33:00,61.0,-4.0,30.09,North,0,0.0,1.0,7,0.00,,,-99.99,,2013-01-20 09:33:00,
2013-01-20 02:00:00,61.0,-4.0,30.08,North,0,0.0,1.0,7,0.00,,,-99.99,,2013-01-20 10:00:00,
2013-01-20 02:32:00,61.0,-4.0,30.08,North,0,0.0,1.0,7,0.00,,,-99.99,,2013-01-20 10:32:00,
2013-01-20 03:33:00,61.0,-4.0,30.06,North,-999,0.0,0.0,7,0.00,,,-99.99,,2013-01-20 11:33:00,
2013-01-20 04:02:00,61.0,-4.0,30.05,North,0,0.0,1.0,7,0.00,,,-99.99,,2013-01-20 12:02:00,
2013-01-20 04:12:00,61.0,-4.0,30.05,North,0,0.0,2.0,7,0.00,,,-99.99,,2013-01-20 12:12:00,
2013-01-20 04:22:00,61.0,-4.0,30.05,North,0,0.0,2.0,7,0.00,,,-99.99,,2013-01-20 12:22:00,
2013-01-20 04:33:00,61.0,-7.0,30.04,North,0,0.0,1.0,6,0.00,,,-99.99,,2013-01-20 12:33:00,
2013-01-20 04:42:00,61.0,-4.0,30.04,North,0,0.0,2.0,7,0.00,,,-99.99,,2013-01-20 12:42:00,
2013-01-20 04:53:00,61.0,-4.0,30.04,North,0,0.0,2.0,7,0.00,,,-99.99,,2013-01-20 12:53:00,
2013-01-20 05:02:00,60.0,-4.0,30.04,North,-999,0.0,0.0,7,0.00,,,-99.99,,2013-01-20 13:02:00,
2013-01-20 05:12:00,60.0,-4.0,30.04,NE,50,2.0,4.0,7,0.00,,,-99.99,,2013-01-20 13:12:00,
2013-01-20 05:23:00,60.0,-4.0,30.04,NE,50,2.0,4.0,7,0.00,,,-99.99,,2013-01-20 13:23:00,
2013-01-20 05:33:00,60.0,-4.0,30.04,NE,50,3.0,4.0,7,0.00,,,-99.99,,2013-01-20 13:33:00,
2013-01-20 05:42:00,60.0,-4.0,30.04,North,0,0.0,5.0,7,0.00,,,-99.99,,2013-01-20 13:42:00,
2013-01-20 05:53:00,60.0,-4.0,30.04,North,0,0.0,5.0,7,0.00,,,-99.99,,2013-01-20 13:53:00,
2013-01-20 06:02:00,61.0,-4.0,30.03,North,-999,0.0,0.0,7,0.00,,,-99.99,,2013-01-20 14:02:00,
2013-01-20 06:12:00,60.0,-4.0,30.04,NE,50,1.0,2.0,7,0.00,,,-99.99,,2013-01-20 14:12:00,
2013-01-20 06:22:00,60.0,-4.0,30.04,NE,50,1.0,2.0,7,0.00,,,-99.99,,2013-01-20 14:22:00,
2013-01-20 06:32:00,60.0,-4.0,30.04,North,0,0.0,2.0,7,0.00,,,-99.99,,2013-01-20 14:32:00,
2013-01-20 06:42:00,60.0,-4.0,30.04,NE,40,1.0,5.0,7,0.00,,,-99.99,,2013-01-20 14:42:00,
2013-01-20 06:53:00,60.0,-4.0,30.04,NE,40,1.0,5.0,7,0.00,,,-99.99,,2013-01-20 14:53:00,
2013-01-20 07:03:00,60.0,-4.0,30.04,North,-999,0.0,0.0,7,0.00,,,-99.99,,2013-01-20 15:03:00,
2013-01-20 07:12:00,60.0,-4.0,30.04,North,0,0.0,8.0,7,0.00,,,-99.99,,2013-01-20 15:12:00,
2013-01-20 07:22:00,60.0,-4.0,30.04,North,0,0.0,8.0,7,0.00,,,-99.99,,2013-01-20 15:22:00,
2013-01-20 07:32:00,60.0,-4.0,30.04,NE,40,1.0,2.0,7,0.00,,,-99.99,,2013-01-20 15:32:00,
2013-01-20 08:02:00,61.0,-1.0,30.05,NE,40,3.0,7.0,8,0.00,,,-99.99,,2013-01-20 16:02:00,
2013-01-20 08:12:00,61.0,-1.0,30.05,NE,40,1.0,7.0,8,0.00,,,-99.99,,2013-01-20 16:12:00,
2013-01-20 08:22:00,61.0,-1.0,30.05,NE,40,1.0,7.0,8,0.00,,,-99.99,,2013-01-20 16:22:00,
2013-01-20 08:32:00,61.0,2.0,30.05,NE,50,1.0,3.0,9,0.00,,,-99.99,,2013-01-20 16:32:00,
2013-01-20 09:02:00,61.0,4.0,30.06,North,-999,0.0,0.0,10,0.00,,,-99.99,,2013-01-20 17:02:00,
2013-01-20 09:32:00,64.0,8.0,30.07,North,0,0.0,1.0,11,0.00,,,-99.99,,2013-01-20 17:32:00,
2013-01-20 09:43:00,64.0,8.0,30.07,North,0,0.0,5.0,11,0.00,,,-99.99,,2013-01-20 17:43:00,
2013-01-20 09:53:00,64.0,8.0,30.07,North,0,0.0,5.0,11,0.00,,,-99.99,,2013-01-20 17:53:00,
2013-01-20 10:02:00,64.0,10.0,30.07,North,0,0.0,1.0,12,0.00,,,-99.99,,2013-01-20 18:02:00,
2013-01-20 10:12:00,65.0,13.0,30.08,North,0,0.0,2.0,13,0.00,,,-99.99,,2013-01-20 18:12:00,
2013-01-20 10:23:00,65.0,13.0,30.08,North,0,0.0,2.0,13,0.00,,,-99.99,,2013-01-20 18:23:00,
2013-01-20 10:33:00,65.0,13.0,30.07,North,-999,0.0,0.0,13,0.00,,,-99.99,,2013-01-20 18:33:00,
2013-01-20 10:42:00,66.0,14.0,30.07,North,0,0.0,3.0,13,0.00,,,-99.99,,2013-01-20 18:42:00,
2013-01-20 10:53:00,66.0,14.0,30.07,North,0,0.0,3.0,13,0.00,,,-99.99,,2013-01-20 18:53:00,
2013-01-20 11:02:00,66.0,19.0,30.06,North,-999,0.0,0.0,16,0.00,,,-99.99,,2013-01-20 19:02:00,
2013-01-20 11:12:00,66.0,19.0,30.05,North,0,0.0,5.0,16,0.00,,,-99.99,,2013-01-20 19:12:00,
2013-01-20 11:22:00,66.0,19.0,30.05,North,0,0.0,5.0,16,0.00,,,-99.99,,2013-01-20 19:22:00,
2013-01-20 11:33:00,67.0,16.0,30.04,WSW,250,1.0,2.0,14,0.00,,,-99.99,,2013-01-20 19:33:00,
2013-01-20 11:42:00,67.0,16.0,30.03,North,0,0.0,2.0,14,0.00,,,-99.99,,2013-01-20 19:42:00,
2013-01-20 11:53:00,67.0,16.0,30.03,North,0,0.0,2.0,14,0.00,,,-99.99,,2013-01-20 19:53:00,
2013-01-20 12:02:00,68.0,17.0,30.02,North,0,0.0,2.0,14,0.00,,,-99.99,,2013-01-20 20:02:00,
2013-01-20 12:12:00,69.0,18.0,30.01,North,0,0.0,4.0,14,0.00,,,-99.99,,2013-01-20 20:12:00,
2013-01-20 12:22:00,69.0,18.0,30.01,North,0,0.0,4.0,14,0.00,,,-99.99,,2013-01-20 20:22:00,
2013-01-20 12:33:00,69.0,18.0,30.01,North,0,0.0,4.0,14,0.00,,,-99.99,,2013-01-20 20:33:00,
2013-01-20 12:42:00,69.0,14.0,29.99,North,0,0.0,2.0,12,0.00,,,-99.99,,2013-01-20 20:42:00,
2013-01-20 12:53:00,69.0,14.0,29.99,North,0,0.0,2.0,12,0.00,,,-99.99,,2013-01-20 20:53:00,
2013-01-20 13:00:00,70.0,15.0,29.97,WSW,250,2.0,3.0,12,0.00,,,-99.99,,2013-01-20 21:00:00,
2013-01-20 13:03:00,69.0,16.0,29.98,North,-999,0.0,0.0,13,0.00,,,-99.99,,2013-01-20 21:03:00,
2013-01-20 13:12:00,70.0,17.0,29.97,North,0,0.0,3.0,13,0.00,,,-99.99,,2013-01-20 21:12:00,
2013-01-20 13:22:00,70.0,17.0,29.97,North,0,0.0,3.0,13,0.00,,,-99.99,,2013-01-20 21:22:00,
2013-01-20 13:33:00,70.0,15.0,29.97,WSW,250,2.0,3.0,12,0.00,,,-99.99,,2013-01-20 21:33:00,
2013-01-20 13:43:00,70.0,15.0,29.97,WSW,250,2.0,3.0,12,0.00,,,-99.99,,2013-01-20 21:43:00,
2013-01-20 13:53:00,70.0,15.0,29.97,WSW,250,2.0,3.0,12,0.00,,,-99.99,,2013-01-20 21:53:00,
2013-01-20 15:23:00,71.0,16.0,29.94,North,0,0.0,5.0,12,0.00,,,-99.99,,2013-01-20 23:23:00,
2013-01-20 15:33:00,71.0,18.0,29.94,SW,230,1.0,3.0,13,0.00,,,-99.99,,2013-01-20 23:33:00,
2013-01-20 15:42:00,71.0,18.0,29.94,SW,230,1.0,3.0,13,0.00,,,-99.99,,2013-01-20 23:42:00,
2013-01-20 15:53:00,71.0,18.0,29.94,SW,230,1.0,3.0,13,0.00,,,-99.99,,2013-01-20 23:53:00,
2013-01-20 16:02:00,71.0,14.0,29.95,North,0,0.0,1.0,11,0.00,,,-99.99,,2013-01-21 00:02:00,
2013-01-20 16:13:00,71.0,14.0,29.95,SW,220,1.0,1.0,11,0.00,,,-99.99,,2013-01-21 00:13:00,
2013-01-20 16:22:00,71.0,14.0,29.95,SW,220,1.0,1.0,11,0.00,,,-99.99,,2013-01-21 00:22:00,
2013-01-20 16:32:00,69.0,12.0,29.96,North,-999,0.0,0.0,11,0.00,,,-99.99,,2013-01-21 00:32:00,
2013-01-20 16:42:00,67.0,13.0,29.96,North,0,0.0,1.0,12,0.00,,,-99.99,,2013-01-21 00:42:00,
2013-01-20 16:53:00,67.0,13.0,29.96,North,0,0.0,1.0,12,0.00,,,-99.99,,2013-01-21 00:53:00,
2013-01-20 17:02:00,67.0,13.0,29.96,North,-999,0.0,0.0,12,0.00,,,-99.99,,2013-01-21 01:02:00,
2013-01-20 17:12:00,68.0,14.0,29.97,North,0,0.0,1.0,12,0.00,,,-99.99,,2013-01-21 01:12:00,
2013-01-20 17:22:00,68.0,14.0,29.97,North,0,0.0,1.0,12,0.00,,,-99.99,,2013-01-21 01:22:00,
2013-01-20 17:32:00,66.0,15.0,29.97,North,0,0.0,1.0,14,0.00,,,-99.99,,2013-01-21 01:32:00,
2013-01-20 17:42:00,64.0,15.0,29.98,SW,230,2.0,4.0,15,0.00,,,-99.99,,2013-01-21 01:42:00,
2013-01-20 17:53:00,64.0,15.0,29.98,SW,230,2.0,4.0,15,0.00,,,-99.99,,2013-01-21 01:53:00,
2013-01-20 18:02:00,63.0,11.0,29.98,WSW,250,4.0,4.0,13,0.00,,,-99.99,,2013-01-21 02:02:00,
2013-01-20 18:12:00,63.0,10.0,29.99,West,260,3.0,7.0,12,0.00,,,-99.99,,2013-01-21 02:12:00,
2013-01-20 18:22:00,63.0,10.0,29.99,West,260,3.0,7.0,12,0.00,,,-99.99,,2013-01-21 02:22:00,
2013-01-20 18:32:00,62.0,9.0,29.99,North,0,0.0,1.0,12,0.00,,,-99.99,,2013-01-21 02:32:00,
2013-01-20 18:42:00,62.0,9.0,29.99,North,0,0.0,1.0,12,0.00,,,-99.99,,2013-01-21 02:42:00,
2013-01-20 18:53:00,62.0,9.0,29.99,North,0,0.0,1.0,12,0.00,,,-99.99,,2013-01-21 02:53:00,
2013-01-20 19:02:00,62.0,9.0,30.00,North,0,0.0,1.0,12,0.00,,,-99.99,,2013-01-21 03:02:00,
2013-01-20 19:12:00,63.0,1.0,30.00,North,0,0.0,3.0,8,0.00,,,-99.99,,2013-01-21 03:12:00,
2013-01-20 19:23:00,63.0,1.0,30.00,North,0,0.0,3.0,8,0.00,,,-99.99,,2013-01-21 03:23:00,
2013-01-20 19:32:00,62.0,0.0,30.01,North,-999,0.0,0.0,8,0.00,,,-99.99,,2013-01-21 03:32:00,
2013-01-20 19:43:00,62.0,0.0,30.00,North,0,0.0,2.0,8,0.00,,,-99.99,,2013-01-21 03:43:00,
2013-01-20 19:53:00,62.0,0.0,30.00,North,0,0.0,2.0,8,0.00,,,-99.99,,2013-01-21 03:53:00,
2013-01-20 20:02:00,61.0,2.0,30.01,North,-999,0.0,0.0,9,0.00,,,-99.99,,2013-01-21 04:02:00,
2013-01-20 20:12:00,61.0,4.0,30.01,North,0,0.0,1.0,10,0.00,,,-99.99,,2013-01-21 04:12:00,
2013-01-20 20:22:00,61.0,4.0,30.01,North,0,0.0,1.0,10,0.00,,,-99.99,,2013-01-21 04:22:00,
2013-01-20 20:32:00,60.0,7.0,30.01,North,-999,0.0,0.0,12,0.00,,,-99.99,,2013-01-21 04:32:00,
2013-01-20 20:42:00,60.0,5.0,30.01,North,0,0.0,2.0,11,0.00,,,-99.99,,2013-01-21 04:42:00,
2013-01-20 20:53:00,60.0,5.0,30.01,North,0,0.0,2.0,11,0.00,,,-99.99,,2013-01-21 04:53:00,
2013-01-20 21:03:00,60.0,3.0,30.02,North,-999,0.0,0.0,10,0.00,,,-99.99,,2013-01-21 05:03:00,
2013-01-20 21:12:00,60.0,1.0,30.02,North,0,0.0,4.0,9,0.00,,,-99.99,,2013-01-21 05:12:00,
2013-01-20 21:42:00,60.0,1.0,30.02,North,0,0.0,4.0,9,0.00,,,-99.99,,2013-01-21 05:42:00,
2013-01-20 22:43:00,62.0,0.0,30.04,North,0,0.0,7.0,8,0.00,,,-99.99,,2013-01-21 06:43:00,
2013-01-20 22:53:00,62.0,0.0,30.04,North,0,0.0,7.0,8,0.00,,,-99.99,,2013-01-21 06:53:00,
2013-01-20 23:02:00,62.0,0.0,30.04,North,-999,0.0,0.0,8,0.00,,,-99.99,,2013-01-21 07:02:00,
2013-01-20 23:12:00,61.0,2.0,30.03,North,0,0.0,10.0,9,0.00,,,-99.99,,2013-01-21 07:12:00,
2013-01-20 23:22:00,61.0,2.0,30.03,North,0,0.0,10.0,9,0.00,,,-99.99,,2013-01-21 07:22:00,
2013-01-20 23:33:00,62.0,3.0,30.03,North,0,0.0,3.0,9,0.00,,,-99.99,,2013-01-21 07:33:00,
2013-01-20 23:42:00,61.0,2.0,30.02,North,0,0.0,3.0,9,0.00,,,-99.99,,2013-01-21 07:42:00,
2013-01-20 23:53:00,61.0,2.0,30.02,North,0,0.0,3.0,9,0.00,,,-99.99,,2013-01-21 07:53:00,